Location: Hilton Head Island
(32.2163°N, 80.7526°W)
Time: 11:55:11
(UTC-04:00)

S-56A Canister/Altair - Pass Details

Date: 22 February 2026
Orbit: 633 x 2484 km, 38.9° (Epoch: 10 March)

Event Time Altitude Azimuth Distance (km) Brightness Sun altitude
Rises 20:35:31 0° 221° (SW) 2,951 11.0 -30.4°
Reaches altitude 10° 20:37:56 10° 213° (SSW) 2,002 9.9 -30.9°
Enters shadow 20:38:22 12° 210° (SSW) 1,841 9.7 -31.0°
